Change the Weather History Date:

Saturday, August 9, 2014

  Actual Average Record
Temperature  
Mean Temperature 69 °F 67 °F  
Max Temperature 88 °F 83 °F 105 °F (1981)
Min Temperature 49 °F 51 °F 35 °F (1959)
Degree Days  
Heating Degree Days 0 1  
Month to date heating degree days 0 9  
Since 1 July heating degree days 4 53  
Cooling Degree Days 4 3  
Month to date cooling degree days 67 27  
Year to date cooling degree days 307 127  
Growing Degree Days 18 (Base 50)    
Moisture  
Dew Point 51 °F    
Average Humidity 58    
Maximum Humidity 89    
Minimum Humidity 26    
Precipitation  
Precipitation 0.00 in 0.02 in 0.35 in (1947)
Month to date precipitation T 0.09  
Year to date precipitation 22.50 21.84  
Sea Level Pressure  
Sea Level Pressure 30.08 in    
Wind  
Wind Speed 8 mph (North)    
Max Wind Speed 17 mph    
Max Gust Speed 24 mph    
Visibility 10 miles    
Events      
T = Trace of Precipitation, MM = Missing Value Source: NWS Daily Summary

Daily Weather History Graph

Daily Weather History Graph

Search for Another Location

Airport or City:

Trip Planner

Search our weather history database for the weather conditions in past years. The results will help you decide how hot, cold, wet, or windy it might be!

Date:

Astronomy

Aug. 09, 2014 Rise Set
Actual Time 6:06 AM PDT 8:28 PM PDT
Civil Twilight 5:33 AM PDT 9:01 PM PDT
Nautical Twilight 4:53 AM PDT 9:41 PM PDT
Astronomical Twilight 4:06 AM PDT 10:27 PM PDT
Moon 7:32 PM PDT (8/9) 4:54 AM PDT (8/9)
Length of Visible Light 15h 27m
Length of Day
14h 21m
Waxing Gibbous, 99% of the Moon is Illuminated
Aug 9
Waxing Gibbous
Aug 10
Full
Aug 17
Last Quarter
Aug 25
New
Sep 2
First Quarter

Hourly Weather History & Observations

Time (PDT) Temp. Heat Index Dew Point Humidity Pressure Visibility Wind Dir Wind Speed Gust Speed Precip Events Conditions
12:53 AM 57.9 °F - 48.9 °F 72% 30.10 in 10.0 mi Calm Calm - N/A   Clear
1:53 AM 57.0 °F - 52.0 °F 83% 30.11 in 10.0 mi Calm Calm - N/A   Clear
2:53 AM 55.9 °F - 52.0 °F 87% 30.11 in 10.0 mi WNW 4.6 mph - N/A   Clear
3:53 AM 55.9 °F - 52.0 °F 87% 30.11 in 10.0 mi NNW 3.5 mph - N/A   Clear
4:53 AM 51.1 °F - 48.9 °F 92% 30.12 in 10.0 mi Calm Calm - N/A   Clear
5:53 AM 50.0 °F - 46.9 °F 89% 30.12 in 10.0 mi Calm Calm - N/A   Clear
6:53 AM 52.0 °F - 48.9 °F 89% 30.13 in 10.0 mi Calm Calm - N/A   Clear
7:53 AM 55.9 °F - 51.1 °F 84% 30.14 in 9.0 mi West 3.5 mph - N/A   Clear
8:53 AM 63.0 °F - 50.0 °F 63% 30.13 in 10.0 mi Variable 3.5 mph - N/A   Unknown
10:53 AM 73.0 °F - 52.0 °F 48% 30.12 in 10.0 mi North 9.2 mph - N/A   Clear
11:53 AM 78.1 °F - 51.1 °F 39% 30.10 in 10.0 mi North 15.0 mph 23.0 mph N/A   Clear
12:53 PM 81.0 °F - 52.0 °F 36% 30.08 in 10.0 mi NE 13.8 mph - N/A   Clear
1:53 PM 84.0 °F 82.6 °F 54.0 °F 35% 30.07 in 10.0 mi Variable 6.9 mph - N/A   Clear
2:53 PM 84.9 °F 83.2 °F 53.1 °F 33% 30.05 in 10.0 mi NNW 11.5 mph 19.6 mph N/A   Clear
3:53 PM 87.1 °F - 50.0 °F 28% 30.04 in 10.0 mi North 15.0 mph - N/A   Clear
4:53 PM 87.1 °F - 48.9 °F 27% 30.02 in 10.0 mi North 13.8 mph - N/A   Clear
5:53 PM 86.0 °F - 50.0 °F 29% 30.01 in 10.0 mi NNE 15.0 mph - N/A   Clear
6:53 PM 84.0 °F - 50.0 °F 31% 30.01 in 10.0 mi North 15.0 mph - N/A   Clear
9:53 PM 72.0 °F - 54.0 °F 53% 30.04 in 10.0 mi North 4.6 mph - N/A   Clear
10:53 PM 71.1 °F - 54.0 °F 55% 30.04 in 10.0 mi NNW 8.1 mph - N/A   Clear
11:53 PM 69.1 °F - 54.0 °F 58% 30.04 in 10.0 mi NNW 5.8 mph - N/A   Clear